Regional Weather Roundup
Issued by NWS

Home | Current Version | Previous Version | Text Only | Print | Product List | Glossary On
Versions: 1 2 3 4 5 6 7 8 9 10 11 12 13 14 15 16 17 18 19 20 21 22 23 24 25 26 27 28
000
ASUS42 KKEY 012110
RWRKEY

FLORIDA REGIONAL WEATHER ROUNDUP FOR THE FLORIDA KEYS
NATIONAL WEATHER SERVICE KEY WEST FLORIDA
500 PM EDT SAT OCT 01 2016

...SOUTH FLORIDA AND THE KEYS...

CITY           SKY/WX    TMP DP  RH WIND       PRES   REMARKS
FORT MYERS     MOSUNNY   87  71  58 E8        29.94S HX  93
SW REGIONAL AP SUNNY     90  69  50 E5        29.94F HX  94
NAPLES         PTSUNNY   90  73  57 W7        29.94S HX  98
MIAMI          CLOUDY    87  72  60 NE13      29.95F HX  93
WEST KENDALL   MOSUNNY   88  72  58 E15       29.94F HX  94
HOMESTEAD      PTSUNNY   86  75  68 NE13      29.93F HX  95
MARATHON       PTSUNNY   87  75  67 NE14      29.92F HX  96
BOCA CHICA NAS PTSUNNY   88  73  61 E12       29.92F HX  95
KEY WEST INTL  MOSUNNY   88  77  69 NE10      29.93F HX 100

...INTERNATIONAL WEATHER...

CITY           SKY/WX    TMP DP  RH WIND       PRES   REMARKS
NASSAU BAHAMAS PTSUNNY   88  79  74 NE10      29.95R HX 102
CANCUN MEXICO  PTSUNNY   86  75  70 NE6       29.90F HX  95
COZUMEL MEXICO PTSUNNY   86  77  74 CALM      29.91F HX  97

ADJACENT COASTAL WATERS...

STATION/POSITION TIME  SKY/WX   TEMP    WIND        PRES    WAVE
                                AIR SEA DIR/SP/G            HT/PER
                 (UTC)          (F)     (DEG/KT/KT) (MB)    (FT/S)
PULASKI SHOAL LI 2100            84      80/ 12/ 13 1013.7F
SAND KEY         2050            84      90/ 15/ 17 1013.7F
LONG KEY         2000            83 87   60/ 16/ 18 1013.9F
FOWEY ROCKS      2000            83 85   60/ 15/ 18 1015.3S

$$




USA.gov is the U.S. government's official web portal to all federal, state and local government web resources and services.